Location: Greenwich
(51.4790°N, 0.0090°E)
Time: 13:23:21
(UTC+01:00)

Altair - Pass Details

Date: 25 June 2025
Orbit: 1502 x 1682 km, 47.2° (Epoch: 19 July)

Event Time Altitude Azimuth Distance (km) Brightness Sun altitude
Rises 02:07:22 0° 271° (W) 4,656 9.9 -13.8°
Reaches altitude 10° 02:10:23 10° 269° (W) 3,688 9.3 -13.7°
Maximum altitude 02:19:34 67° 190° (S) 1,671 7.4 -13.2°
Drops below altitude 10° 02:29:05 10° 111° (ESE) 3,815 9.6 -12.8°
Sets 02:32:15 0° 109° (ESE) 4,824 10.1 -12.6°
